Weather in Novotsaritsino

Russia / Omsk Oblast     54°39′48″N   71°56′21″E
temp.,
°C
wind,
m/s
gust,
m/s
humid.,
%
clouds,
%
prec.,
mm/h
press.,
hPa
HPBL,
m
18 may, tue
tue1800:00+22wsw33385 0.0 101132
03:00+19nnw47485 0.0 1011117
06:00+17wnw386117 0.1 1011148
09:00+22nw5746100 0.1 1011394
12:00+26wnw6937100 0.1 10101768
15:00+26wnw9113498 0.0 10092831
18:00+27nw9123684 0.0 10072987
21:00+18nne51169100 0.1 1011639
19 may, wed
wed1900:00+15n6984100 0.2 1012470
03:00+13nne71083100 0.1 1013671
06:00+12nne71180100 0.1 1015744
09:00+12nne6964100 0.0 1017998
12:00+16nne684134 0.0 10171960
15:00+18n783445 0.0 10182304
18:00+17n893633 0.0 10182278
21:00+13n49465 0.0 1019255
20 may, thu
thu2000:00+10n395813 0.0 1021186
03:00+9n410625 0.0 1021253
06:00+7n496235 0.0 1023297
09:00+11nne464775 0.0 1024905
12:00+14n453913 0.0 10231476
15:00+17nnw4640100 0.0 10221848
18:00+15e2250100 0.0 1021273
21:00+11sse5873100 0.0 1020212
21 may, fri
fri2100:00+14ssw485996 0.1 1019195
03:00+15wsw395950 0.1 1017274
06:00+13nw497295 0.3 1017231
09:00+17n466410 0.0 1018531
12:00+20nne55515 0.0 10191153
15:00+21nne55455 0.0 10201561
18:00+21ne44445 0.0 10201404
21:00+17ene34605 0.0 102148
22 may, sat
sat2200:00+15ese33650 0.0 102232
03:00+13sse33660 0.0 102229
06:00+13ssw35660 0.0 1022103
09:00+19sw45471 0.0 1022460
12:00+24wsw33350 0.0 1021976
15:00+27wsw22291 0.0 10191797
18:00+28sw23270 0.0 10192627
21:00+23s33400 0.0 101822